PROBA-1 1 26958U 01049B 25353.80184876 .00002368 00000+0 15934-3 0 9997 2 26958 97.9589 351.1972 0056530 10.8069 349.4358 15.06494570316603 CUTE-1 (CO-55) 1 27844U 03031E 25353.26427094 .00000282 00000+0 14155-3 0 9994 2 27844 98.6762 359.0831 0009431 354.6775 5.4302 14.24184674166062 CUBESAT XI-IV (CO-57) 1 27848U 03031J 25353.44482588 .00000234 00000+0 12209-3 0 9992 2 27848 98.6791 359.1180 0009673 12.1508 347.9902 14.23492007165806 APRIZESAT 4 1 35684U 09041D 25353.19437691 .00000736 00000+0 95139-4 0 9994 2 35684 98.1634 59.8014 0043520 183.5608 176.5301 14.83506776884674 APRIZESAT 3 1 35686U 09041F 25353.36381429 .00001075 00000+0 99709-4 0 9996 2 35686 98.1798 133.3593 0061566 301.5035 58.0178 14.95444354889490 PROBA-2 1 36037U 09059B 25353.45322407 .00000230 00000+0 64133-4 0 9992 2 36037 98.2372 174.3360 0014246 113.9596 246.3094 14.54716558855391 APRIZESAT 5 1 37792U 11044E 25353.54347370 .00000795 00000+0 10894-3 0 9994 2 37792 98.2367 276.6673 0051680 220.0867 139.6526 14.80589478772201 APRIZESAT 6 1 37793U 11044F 25353.47760661 .00000726 00000+0 11075-3 0 9995 2 37793 98.2461 255.2450 0042330 301.9532 232.3538 14.76550126770624 PROBA-V 1 39159U 13021A 25353.46857595 .00000062 00000+0 45210-4 0 9994 2 39159 98.3394 336.1491 0003217 310.6001 49.4899 14.23549402655548 APRIZESAT 7 1 39416U 13066A 25351.58791045 .00001184 00000+0 12412-3 0 9990 2 39416 97.7478 302.7623 0037879 93.0669 267.4884 14.90916766654167 APRIZESAT 8 1 39425U 13066K 25353.59340429 .00000765 00000+0 89669-4 0 9992 2 39425 97.8013 298.8707 0046941 155.1126 205.2368 14.87128434652976 BUGSAT-1 (TITA) 1 40014U 14033E 25353.73036752 .00004387 00000+0 24733-3 0 9994 2 40014 98.0564 71.0230 0030693 73.8556 286.6049 15.13370229628678 SAUDISAT 4 1 40016U 14033G 25353.47534374 .00000586 00000+0 84756-4 0 9999 2 40016 97.7302 141.1605 0043880 299.2446 60.4382 14.79181046619503 APRIZESAT 9 1 40018U 14033J 25352.91775675 .00000514 00000+0 83249-4 0 9997 2 40018 97.8795 125.8634 0067717 60.5664 300.2280 14.73896451617001 APRIZESAT 10 1 40019U 14033K 25353.58805005 .00000531 00000+0 91134-4 0 9994 2 40019 97.9413 119.8729 0080251 126.8138 234.0465 14.70608073615856 TECHDEMOSAT-1 (TDS-1) 1 40076U 14037H 25353.63877828 .00006235 00000+0 39234-3 0 9998 2 40076 98.3668 323.7152 0007758 139.9272 220.2528 15.09591752621107 TECHNOSAT 1 42829U 17042E 25353.45059574 .00002767 00000+0 20680-3 0 9996 2 42829 97.4052 153.3681 0017875 352.6481 7.4480 15.03463352459685 FLYING LAPTOP 1 42831U 17042G 25353.74002519 .00002729 00000+0 22380-3 0 9995 2 42831 97.4245 152.0408 0014609 26.4109 333.7857 14.99955807459543 HAWK-A 1 43765U 18099H 25353.09862835 .00007127 00000+0 31238-3 0 9997 2 43765 97.4206 42.7598 0036714 196.1543 163.8526 15.21684845385685 HAWK-B 1 43794U 18099AN 25353.11539818 .00005549 00000+0 25618-3 0 9995 2 43794 97.4255 42.5384 0033140 212.4647 147.4550 15.20130641385650 HAWK-C 1 43799U 18099AT 25353.38723928 .00006785 00000+0 27075-3 0 9998 2 43799 97.4181 43.1404 0043214 198.7097 161.2555 15.24627666386484 SALSAT 1 46495U 20068K 25353.48061531 .00006196 00000+0 24069-3 0 9995 2 46495 97.8779 341.1169 0009485 202.4725 157.6098 15.26432785287916 HAWK-2C 1 47502U 21006CT 25353.43082304 .00005820 00000+0 19202-3 0 9990 2 47502 97.2555 36.3948 0008784 119.4587 240.7532 15.31770771271954 HAWK-2A 1 47505U 21006CW 25353.43390762 .00005545 00000+0 18305-3 0 9990 2 47505 97.2597 36.9704 0008297 121.7128 238.4924 15.31775262271954 HAWK-2B 1 47508U 21006CZ 25353.10453751 .00006363 00000+0 20967-3 0 9991 2 47508 97.2467 35.2841 0008979 121.2881 238.9241 15.31767350271906 HAWK-3B 1 48931U 21059BE 25353.73605596 .00020083 00000+0 29567-3 0 9995 2 48931 97.6691 170.4168 0005205 269.5058 90.5599 15.55460706249831 HAWK-3C 1 48948U 21059BX 25353.47848414 .00022217 00000+0 32694-3 0 9998 2 48948 97.6850 175.4656 0005585 272.3332 87.7282 15.55450252249798 HAWK-3A 1 48957U 21059CG 25353.47832322 .00022169 00000+0 32626-3 0 9990 2 48957 97.6780 172.8313 0005263 272.2787 87.7864 15.55449736249798 HAWK-5C 1 52754U 22057Y 25352.92701977 .00013493 00000+0 29960-3 0 9996 2 52754 97.6371 137.2797 0005703 12.9178 347.2214 15.43819992198469 HAWK-5B 1 52756U 22057AA 25352.92685063 .00013441 00000+0 29847-3 0 9992 2 52756 97.6356 135.6351 0005703 9.0027 351.1321 15.43817940198466 HAWK-5A 1 52757U 22057AB 25352.92661494 .00014203 00000+0 31530-3 0 9994 2 52757 97.6367 136.4592 0005952 9.9242 350.2121 15.43810674198464 HAWK-6B 1 55324U 23011A 25353.58505013 .00004548 00000+0 21096-3 0 9992 2 55324 40.5159 317.9428 0003893 237.1625 122.8809 15.20726166160472 HAWK-6C 1 55326U 23011C 25353.58443618 .00004464 00000+0 20718-3 0 9993 2 55326 40.4846 315.0285 0003451 228.2157 131.8357 15.20724389160481 HAWK-6A 1 55327U 23011D 25353.58445715 .00004478 00000+0 20784-3 0 9992 2 55327 40.5006 316.5265 0003230 232.9819 127.0694 15.20724540160487 HAWK-7A 1 56191U 23054P 25353.19820691 .00005180 00000+0 18723-3 0 9997 2 56191 97.2936 239.8412 0010295 345.7441 14.3507 15.28839580149557 HAWK-7B 1 56193U 23054R 25353.19803215 .00002327 00000+0 85472-4 0 9998 2 56193 97.2999 238.0379 0010663 359.7767 0.3467 15.28874574149558 HAWK-7C 1 56200U 23054Y 25353.19780610 .00004737 00000+0 17128-3 0 9999 2 56200 97.2981 238.8612 0009943 353.8236 6.2879 15.28874744149552